Date String (YYYY-MM-DD hh:mm:ss) UTC,Instrument flags,Ambient pressure (hPa),Sample flow (lpm),Bypass flow (lpm),Sample temperature (°C),Ambient temperature (°C),ASC tube jacket temperature (°C),LED temperature (°C),Box temperature (°C),Sample RH (%),Span deviation,Mass concentration (μg/m³),Mass concentration (μg/m³),Mass concentration (μg/m³)
DateTimeUTC,F1_M11,P_M11,Q1_M11,Q2_M11,T1_M11,T2_M11,T3_M11,T4_M11,T5_M11,U1_M11,ZSPAN_M11,X0_M11,X2_M11,X1_M11
2022-08-02 21:00:00,,0825.1,4.99,0.00,29.1,26.9,00.0,37.9,30.8,26.1,0000.0,0005.63,0002.70,0002.28
2022-08-02 21:01:00,,0825.1,5.01,0.00,29.1,26.9,00.0,37.8,30.9,26.1,0000.0,0005.11,0002.68,0002.28
2022-08-02 21:02:00,,0825.0,5.00,0.00,29.0,27.1,00.0,37.8,30.8,25.5,0000.0,0004.55,0002.57,0002.19
2022-08-02 21:03:00,,0825.0,4.99,0.00,29.0,27.3,00.0,37.8,30.8,27.2,0000.0,0004.61,0002.60,0002.21
2022-08-02 21:04:00,,0824.9,5.00,0.00,29.1,27.5,00.0,37.8,30.9,28.3,0000.0,0004.80,0002.72,0002.30
2022-08-02 21:05:00,,0824.9,5.00,0.00,29.1,27.7,00.0,37.8,31.0,26.8,0000.0,0005.01,0002.83,0002.39
2022-08-02 21:06:00,,0824.9,4.99,0.00,29.2,27.9,00.0,37.9,31.1,26.8,0000.0,0005.14,0002.88,0002.45
2022-08-02 21:07:00,,0824.9,5.00,0.00,29.2,28.0,00.0,37.9,31.2,25.0,0000.0,0005.11,0002.88,0002.45
2022-08-02 21:08:00,,0825.0,5.00,0.00,29.2,27.5,00.0,37.8,31.0,23.9,0000.0,0004.14,0002.81,0002.38
2022-08-02 21:09:00,,0824.9,4.99,0.00,29.1,27.0,00.0,37.8,31.0,24.5,0000.0,0004.87,0002.71,0002.27
2022-08-02 21:10:00,,0824.9,5.00,0.00,29.1,27.0,00.0,37.8,30.9,27.7,0000.0,0004.97,0002.70,0002.25
2022-08-02 21:11:00,,0824.9,5.00,0.00,29.1,27.1,00.0,37.8,30.9,28.5,0000.0,0005.01,0002.73,0002.30
2022-08-02 21:12:00,,0824.9,5.00,0.00,29.1,27.3,00.0,37.8,30.9,29.1,0000.0,0005.23,0002.83,0002.35
2022-08-02 21:13:00,,0824.9,4.99,0.00,29.1,27.5,00.0,37.8,31.0,28.8,0000.0,0005.58,0002.98,0002.47
2022-08-02 21:14:00,,0824.9,5.00,0.00,29.1,27.8,00.0,37.8,31.1,28.0,0000.0,0005.49,0002.98,0002.50
2022-08-02 21:15:00,,0824.9,5.00,0.00,29.2,28.0,00.0,37.9,31.1,29.3,0000.0,0005.56,0002.99,0002.52
2022-08-02 21:16:00,,0824.9,5.00,0.00,29.2,27.8,00.0,37.9,31.1,29.3,0000.0,0005.63,0003.02,0002.56
2022-08-02 21:17:00,,0824.9,5.00,0.00,29.2,27.2,00.0,37.8,31.0,29.4,0000.0,0005.88,0003.11,0002.60
2022-08-02 21:18:00,,0824.9,5.01,0.00,29.1,26.9,00.0,37.8,31.0,30.2,0000.0,0006.93,0003.17,0002.67
2022-08-02 21:19:00,,0824.8,4.99,0.00,29.1,27.0,00.0,37.8,30.9,29.6,0000.0,0007.12,0003.26,0002.80
2022-08-02 21:20:00,,0824.8,5.01,0.00,29.1,27.2,00.0,37.8,30.9,30.2,0000.0,0007.97,0003.38,0002.92
2022-08-02 21:21:00,,0824.8,4.99,0.00,29.1,27.4,00.0,37.8,30.9,30.2,0000.0,0008.71,0003.43,0002.96
2022-08-02 21:22:00,,0824.8,5.00,0.00,29.1,27.6,00.0,37.8,31.0,30.2,0000.0,0009.31,0003.45,0002.93
2022-08-02 21:23:00,,0824.7,5.00,0.00,29.1,27.8,00.0,37.8,31.1,28.5,0000.0,0009.23,0003.39,0002.84
2022-08-02 21:24:00,,0824.7,4.99,0.00,29.2,27.9,00.0,37.9,31.1,25.0,0000.0,0009.03,0003.30,0002.68
2022-08-02 21:25:00,,0824.6,5.00,0.00,29.2,27.4,00.0,37.8,31.0,25.3,0000.0,0008.94,0003.22,0002.53
2022-08-02 21:26:00,,0824.7,4.99,0.00,29.1,27.0,00.0,37.8,30.9,25.1,0000.0,0008.79,0003.11,0002.38
2022-08-02 21:27:00,,0824.6,5.00,0.00,29.1,26.9,00.0,37.8,30.9,26.8,0000.0,0009.28,0002.98,0002.25
2022-08-02 21:28:00,,0824.6,5.00,0.00,29.1,27.0,00.0,37.8,30.8,26.3,0000.0,0009.25,0002.82,0002.12
2022-08-02 21:29:00,,0824.7,5.00,0.00,29.0,27.2,00.0,37.8,30.8,26.4,0000.0,0008.77,0002.69,0002.00
2022-08-02 21:30:00,,0824.7,5.00,0.00,29.1,27.5,00.0,37.8,31.0,26.0,0000.0,0008.71,0002.59,0001.92
2022-08-02 21:31:00,,0824.7,4.99,0.00,29.1,27.7,00.0,37.8,31.1,26.5,0000.0,0007.78,0002.44,0001.83
2022-08-02 21:32:00,,0824.7,5.00,0.00,29.2,27.9,00.0,37.9,31.1,26.6,0000.0,0006.10,0002.24,0001.74
2022-08-02 21:33:00,,0824.7,5.01,0.00,29.2,27.7,00.0,37.9,31.1,26.9,0000.0,0004.62,0002.08,0001.66
2022-08-02 21:34:00,,0824.7,5.00,0.00,29.2,27.1,00.0,37.8,31.0,28.0,0000.0,0005.02,0002.01,0001.61
2022-08-02 21:35:00,,0824.7,5.00,0.00,29.1,26.9,00.0,37.8,30.9,26.6,0000.0,0005.51,0002.03,0001.58
2022-08-02 21:36:00,,0824.7,4.99,0.00,29.1,27.0,00.0,37.8,30.9,25.5,0000.0,0005.91,0002.06,0001.57
2022-08-02 21:37:00,,0824.6,5.01,0.00,29.0,27.2,00.0,37.8,30.8,25.0,0000.0,0006.22,0002.05,0001.54
2022-08-02 21:38:00,,0824.6,4.99,0.00,29.1,27.4,00.0,37.8,30.9,25.6,0000.0,0005.22,0002.01,0001.52
2022-08-02 21:39:00,,0824.5,5.00,0.00,29.1,27.6,00.0,37.8,31.0,25.2,0000.0,0004.76,0001.99,0001.48
2022-08-02 21:40:00,,0824.7,4.99,0.00,29.2,27.8,00.0,37.8,31.1,24.1,0000.0,0004.50,0001.96,0001.47
2022-08-02 21:41:00,,0824.6,5.00,0.00,29.2,28.0,00.0,37.9,31.1,23.9,0000.0,0004.34,0001.91,0001.45
2022-08-02 21:42:00,,0824.6,5.00,0.00,29.2,27.9,00.0,37.9,31.2,23.8,0000.0,0004.26,0001.86,0001.43
2022-08-02 21:43:00,,0824.6,5.01,0.00,29.2,27.4,00.0,37.9,31.0,24.6,0000.0,0004.29,0001.85,0001.40
2022-08-02 21:44:00,,0824.6,4.99,0.00,29.2,27.1,00.0,37.9,31.0,25.2,0000.0,0004.26,0001.85,0001.39
2022-08-02 21:45:00,,0824.7,5.00,0.00,29.2,27.2,00.0,37.9,31.0,25.1,0000.0,0003.77,0001.81,0001.36
2022-08-02 21:46:00,,0824.6,5.02,0.00,29.1,27.3,00.0,37.8,30.9,25.4,0000.0,0003.22,0001.76,0001.35
2022-08-02 21:47:00,,0824.7,4.99,0.00,29.1,27.5,00.0,37.9,31.0,24.9,0000.0,0003.34,0001.74,0001.37
2022-08-02 21:48:00,,0824.5,5.00,0.00,29.2,27.8,00.0,37.9,31.1,24.5,0000.0,0003.02,0001.75,0001.39
2022-08-02 21:49:00,,0824.6,5.02,0.00,29.2,28.0,00.0,37.9,31.2,24.6,0000.0,0003.00,0001.75,0001.40
2022-08-02 21:50:00,,0824.5,4.99,0.00,29.3,27.9,00.0,37.9,31.2,24.8,0000.0,0002.93,0001.74,0001.42
2022-08-02 21:51:00,,0824.6,5.00,0.00,29.2,27.3,00.0,37.9,31.1,25.2,0000.0,0003.30,0001.73,0001.41
2022-08-02 21:52:00,,0824.6,4.99,0.00,29.2,27.1,00.0,37.9,31.0,25.1,0000.0,0004.70,0001.76,0001.40
2022-08-02 21:53:00,,0824.4,5.01,0.00,29.2,27.2,00.0,37.9,31.0,24.9,0000.0,0004.85,0001.82,0001.41
2022-08-02 21:54:00,,0824.5,4.99,0.00,29.1,27.3,00.0,37.9,30.9,24.9,0000.0,0004.87,0001.83,0001.43
2022-08-02 21:55:00,,0824.5,5.00,0.00,29.1,27.6,00.0,37.9,31.0,24.5,0000.0,0004.83,0001.83,0001.45
2022-08-02 21:56:00,,0824.4,5.00,0.00,29.2,27.8,00.0,37.9,31.1,24.4,0000.0,0004.91,0001.86,0001.45
2022-08-02 21:57:00,,0824.4,5.00,0.00,29.2,28.0,00.0,37.9,31.1,24.4,0000.0,0005.09,0001.86,0001.46
2022-08-02 21:58:00,,0824.4,5.00,0.00,29.3,28.1,00.0,37.9,31.2,24.6,0000.0,0005.15,0001.85,0001.45
2022-08-02 21:59:00,,0824.5,4.99,0.00,29.3,27.7,00.0,37.9,31.1,24.4,0000.0,0005.96,0001.86,0001.46
